Location: Nitra
(0.0000°N, 18.0833°E)
Time: 10:35:45
(UTC+02:00)

A-11 Canister half - Pass Details

Date: 03 April 2023
Orbit: 1513 x 1686 km, 47.2° (Epoch: 02 June)

Event Time Altitude Azimuth Distance (km) Brightness Sun altitude
Exits shadow 04:41:22 37° 327° (NNW) 2,403 9.7 -32.3°
Maximum altitude 04:46:13 83° 50° (NE) 1,673 9.1 -31.1°
Drops below altitude 10° 04:56:08 10° 138° (SE) 3,850 11.5 -28.6°
Sets 04:59:12 0° 138° (SE) 4,815 12.1 -27.9°
